Location: Newark
(41.8922°N, 9.0050°E)
Time: 00:30:14
(UTC+00:00)

Envisat - Pass Details

Date: 02 February 2020
Orbit: 764 x 766 km, 98.1° (Epoch: 27 February)

Event Time Altitude Azimuth Distance (km) Brightness Sun altitude
Rises 17:29:19 0° 176° (S) 3,218 6.4 -9.6°
Reaches altitude 10° 17:31:38 10° 180° (S) 2,296 5.6 -10.0°
Maximum altitude 17:36:38 59° 259° (W) 885 3.7 -11.0°
Drops below altitude 10° 17:41:40 10° 339° (NNW) 2,312 5.6 -11.9°
Sets 17:44:01 0° 344° (NNW) 3,242 6.3 -12.3°
